DMSP 5D-2 F13 DEB, 40415

Orbit data source: Space-Track

DMSP 5D-2 F13 DEB, 40415 is space debris in SSO originally from a launch on Fri, 24 Mar 1995 UTC launched from the Air Force Western Test Range (AFWTR). Debris objects in space refer to the collection of defunct objects orbiting the Earth. Examples of debris include non-operational satellites, rocket bodies, and fragments generated from explosions, collisions, or faulty payload assembly.

Loading next visibility...
Identifier
40415, 1995-015AC
Orbit
SSO
Country
Flag of USUS
Related business
Manufacturer
Unknown
Mission
Spacecraft
Bus & Motor
Unknown
Mass
Unknown
Launch date (UTC)
1995-03-24 (31 years ago)
Launch vehicle
Unknown
Launch site
Air Force Western Test Range (AFWTR)
Object type
Payload
Rocket body
Debris
Shape & HBR
Unknown shape, 0.1 m
Radar Cross Section
Small (<0.1 m²)

Expand to show TLE details & history
Last TLE update: 8 hours ago

TLE from 8 hours ago
0 DMSP 5D-2 F13 DEB
1 40415U 95015AC  25291.80756588  .00003987  00000-0  16169-2 0  9992
2 40415  98.7412 314.0385 0004668 327.7426  32.3469 14.28236221551577
Epoch: 2025-10-18T19:22Z
TLE epoch observation values (Epoch: 2025-10-18T19:22:53.692Z)
Latitude
0.00002°
Longitude
-4.2185°
Altitude
797.727 km
Speed
7.456 km/s
True Right ascension
20h 56m 09s
True Declination
0° 00' 00"
Sunlit
Object was in daylight at epoch
Visualization orbit readout
Latitude
Unknown
Longitude
Unknown
Altitude
Unknown
Speed
Unknown
Apparent Right ascension
Unknown
Apparent Declination
Unknown
Sunlit
N/A
Visualization observer readout
Local Sidereal Time
22:07:47
Azimuth
Unknown
Elevation
Unknown
Doppler factor
Unknown
Orbital elements
Apogee altitude
798.13 km
Perigee altitude
791.433 km
Semi-major axis
7,172.919 km
Eccentricity
0.00047
Inclination
98.7412°
RAAN
314.0385°
Arg. of periapsis
327.7426°
True anomaly
32.37553°
Mean anomaly
32.3469°
Eccentric anomaly
32.36122°
Mean motion
3.57272 °/min
Orbital period
100.76 mins
BSTAR
0.0016169

Documentation

Showing up to 5 results
|